Regional Weather Roundup
Issued by NWS

Home | Current Version | Previous Version | Text Only | Print | Product List | Glossary Off
Versions: 1 2 3 4 5 6 7 8 9 10 11 12 13 14 15 16 17 18 19 20 21 22 23 24 25 26 27 28 29 30 31 32 33 34 35 36 37 38 39 40 41 42 43 44 45 46 47 48 49 50

000
ASUS43 KMPX 280701
RWRMN
WEATHER ROUNDUP FOR MINNESOTA
NATIONAL WEATHER SERVICE TWIN CITIES/CHANHASSEN MN
200 AM CDT SUN MAY 28 2017


NOTE: "FAIR" INDICATES FEW OR NO CLOUDS BELOW 12,000 FEET WITH NO
SIGNIFICANT WEATHER AND/OR OBSTRUCTIONS TO VISIBILITY. N/A MEANS
CURRENT SKY AND/OR WEATHER CONDITIONS ARE NOT AVAILABLE.

MNZ060>063-068>070-280800-
   Twin Cities Metro

CITY           SKY/WX    TMP DP  RH WIND       PRES   REMARKS
TWIN CITIES    PTCLDY    63  47  55 SW7       29.79S
ST PAUL        PTCLDY    60  50  69 E6        29.79S
CRYSTAL        PTCLDY    59  46  62 SW5       29.77S
BLAINE         MOCLDY    63  48  59 SW7       29.78S
LAKEVILLE      MOCLDY    57  46  67 CALM      29.81R
EDEN PRAIRIE   PTCLDY    59  49  69 SW7       29.78F
SOUTH ST PAUL  CLOUDY    61  46  58 CALM      29.79S
LAKE ELMO      CLOUDY    59  50  72 S5        29.80S
$$
MNZ001>005-007-008-013>017-022>024-027-028-280800-
   Northwest Minnesota

CITY           SKY/WX    TMP DP  RH WIND       PRES   REMARKS
BEMIDJI        DRIZZLE   51  48  90 NW6       29.69F
HALLOCK        CLOUDY    52  46  82 NW9       29.71S
ROSEAU         PTCLDY    55  46  71 W5        29.68R
WARROAD        PTCLDY    54  46  76 SW3       29.68R
CROOKSTON      LGT RAIN  50  50 100 NW7       29.74S
FOSSTON        PTCLDY    46  45  93 W3        29.73S
DETROIT LAKES  CLEAR     52  46  82 W8        29.76S
MOORHEAD       CLEAR     52  46  82 NW9       29.77S
PARK RAPIDS    RAIN      53  48  83 NW6       29.71F
MAHNOMEN       CLOUDY    49  47  93 W9        29.74F
$$
MNZ006-009>011-018-025>026-280800-
   North Central Minnesota

CITY           SKY/WX    TMP DP  RH WIND       PRES   REMARKS
BAUDETTE       CLOUDY    55  45  68 W5        29.66F
FLAG ISLAND    CLOUDY    57  45  62 NW10      29.64S
INTL FALLS     CLOUDY    50  44  80 CALM      29.67F
WASKISH        CLOUDY    55  48  76 SW7       29.68S
BIG FORK       CLOUDY    55  45  67 CALM      29.68F
LONGVILLE      MOCLDY    57  46  67 SW6       29.70S
GRAND RAPIDS   MOCLDY    50  46  86 SE5       29.71F
CRANE LAKE     CLOUDY    50  48  93 CALM      29.72S
ORR            CLOUDY    54  41  62 CALM      29.66F
COOK           CLOUDY    52  45  76 CALM      29.70F
WALKER         RAIN      52  49  90 W10       29.71R
$$
MNZ012-019>021-037-280800-
   Northeast Minnesota

CITY           SKY/WX    TMP DP  RH WIND       PRES   REMARKS
DULUTH         CLOUDY    57  44  62 SW8       29.73F
ELY            MOCLDY    48  43  81 SE3       29.71F
HIBBING        PTCLDY    45  43  93 CALM      29.70F
EVELETH        CLEAR     45  42  90 CALM      29.73S
DULUTH HARBOR  CLOUDY    57  50  77 CALM      29.73F
TWO HARBORS    PTCLDY    55  48  76 CALM      29.72S
SILVER BAY     MOCLDY    50  46  87 CALM      29.72S
GRAND MARAIS     N/A     50  45  83 CALM      29.72F
G MARAIS ARPRT CLOUDY    48  39  71 CALM      29.75F
$$
MNZ029>031-032-039>041-046>048-054>057-064-280800-
   West Central Minnesota

CITY           SKY/WX    TMP DP  RH WIND       PRES   REMARKS
FERGUS FALLS   CLEAR     48  48 100 W7        29.76R
WHEATON        CLEAR     54  46  76 W9        29.81R
MORRIS         PTCLDY    54  52  94 NW5       29.76S
ALEXANDRIA     MOCLDY    53  47  79 W6        29.76F
ELBOW LAKE     FAIR      51  48  91 NW7       29.78R
WADENA         PTCLDY    52  48  87 SW5       29.73F
GLENWOOD       CLOUDY    55  48  76 CALM      29.76F
APPLETON       CLOUDY    57  48  72 SW8       29.77F
BENSON         CLOUDY    55  52  88 CALM      29.78F
ORTONVILLE     PTCLDY    55  48  76 W8        29.79R
MADISON        CLOUDY    63  50  63 W9        29.79R
WILLMAR        FAIR      57  48  72 CALM      29.80F
$$
MNZ033>034-036-042>043-049>051-058-059-280800-
   Central Minnesota

CITY           SKY/WX    TMP DP  RH WIND       PRES   REMARKS
ST CLOUD       MOCLDY    57  48  72 W10       29.76S
SAUK CENTRE    RAIN      58  46  65 W8G17     29.77S
PAYNESVILLE    CLOUDY    59  46  62 W9        29.79F
AITKIN         CLOUDY    52  45  76 S5        29.71F
PINE RIVER     MOCLDY    57  46  67 W7        29.75S
BRAINERD       PTCLDY    56  45  66 SW9       29.72F
STAPLES        LGT RAIN  55  46  71 W8        29.72F
LONG PRAIRIE   FAIR      57  45  62 W6        29.75F
LITTLE FALLS   CLEAR     59  43  55 SW6       29.75S
LITCHFIELD     MOCLDY    59  48  67 W7        29.80R
BUFFALO        CLEAR     59  47  63 SW3       29.79S
MAPLE LAKE     PTCLDY    58  49  71 S3        29.78F
HUTCHINSON     CLOUDY    60  49  69 SW6       29.81S
$$
MNZ037-044-045-052-053-280800-
   East Central Minnesota

CITY           SKY/WX    TMP DP  RH WIND       PRES   REMARKS
PRINCETON      PTCLDY    57  46  67 S5        29.76F
MORA           CLEAR     50  45  81 CALM      29.77S
CAMBRIDGE      PTCLDY    59  46  63 S6        29.75S
RUSH CITY      MOCLDY    56  49  76 S5        29.76S
MOOSE LAKE     CLEAR     46  45  93 SW3       29.72F
HINCKLEY       FAIR      52  50  93 CALM      29.75F
CLOQUET        CLEAR     55  43  62 CALM      29.74S
MCGREGOR       MOCLDY    54  46  76 S6        29.72F
$$
MNZ071>073-080-081-089-090-097-098-280800-
   Southwest Minnesota

CITY           SKY/WX    TMP DP  RH WIND       PRES   REMARKS
MONTEVIDEO     CLOUDY    59  46  63 CALM      29.79F
CANBY          CLOUDY    60  49  67 SW10      29.81S
MARSHALL       PTCLDY    59  49  69 W17       29.80F
REDWOOD FALLS  PTCLDY    58  47  66 SW13      29.80S
OLIVIA         MOCLDY    55  46  71 SW8       29.79F
PIPESTONE      CLEAR     54  46  76 SW8       29.85F
WINDOM         CLEAR     57  52  82 SW12      29.85S
WORTHINGTON    CLEAR     56  50  80 SW14      29.86F
JACKSON        PTCLDY    55  50  82 SW7       29.86F
TRACY          PTCLDY    58  50  76 SW15      29.83S
SLAYTON        CLEAR     54  49  83 SW13      29.85F
$$
MNZ065>067-074>077-082>085-091>093-280800-
   South Central Minnesota

CITY           SKY/WX    TMP DP  RH WIND       PRES   REMARKS
MANKATO        CLEAR     60  50  69 SW8       29.83S
NEW ULM        CLEAR     57  48  72 SW10      29.81F
ST JAMES       PTCLDY    55  52  88 SW6       29.84F
FAIRMONT       PTCLDY    59  52  77 W10       29.85F
GLENCOE        CLEAR     61  53  74 SW7       29.80S
FARIBAULT      MOCLDY    57  48  72 CALM      29.82S
OWATONNA       CLOUDY    57  48  72 S10       29.83S
WASECA         CLOUDY    55  48  76 S7        29.85S
ALBERT LEA     CLOUDY    63  52  67 SW7       29.84F
$$
MNZ078>079-086>088-094>096-280800-
   Southeast Minnesota

CITY           SKY/WX    TMP DP  RH WIND       PRES   REMARKS
ROCHESTER      CLOUDY    56  52  86 SW8       29.84F
RED WING       CLOUDY    55  52  88 CALM      29.80S
STANTON        CLOUDY    58  47  67 SW3       29.80S
DODGE CENTER   CLOUDY    57  48  72 SW9       29.84S
WINONA         CLOUDY    54  52  94 CALM      29.82S
AUSTIN         CLOUDY    54  48  82 SW3       29.84F
PRESTON        CLOUDY    53  49  83 SW5       29.84F
$$
ABBREVIATIONS USED IN REMARKS
   TC - TEMPERATURES IN CELSIUS
  WCI - WIND CHILL INDEX
   HX - HEAT INDEX
  VSB - VISIBILITY
$$




USA.gov is the U.S. government's official web portal to all federal, state and local government web resources and services.